[[{"header":{"parameterUnit":"m.s-1","parameterCategory":1,"la1":30.2992,"la2":30.254,"lo1":-89.0895,"lo2":-89.0443,"dy":0.0025,"dx":0.0025,"nx":19,"ny":19,"refTime":"2026-04-03T21:00:00:Z","depth":0,"parameterNumber":2,"parameterNumberName":"U-component_of_WINDS"},"data":[0,0,0,-5.3725,-5.3727,-5.3812,-5.3812,-5.3939,-5.394,0,0,0,0,0,0,0,0,0,0,0,-5.3711,-5.3712,-5.3724,-5.3727,-5.3812,-5.3812,-5.3938,-5.394,0,0,0,0,0,0,0,0,0,0,0,-5.371,-5.3712,-5.3714,-5.3727,-5.3812,-5.3812,-5.3938,-5.3867,0,0,0,0,0,0,0,0,0,0,-5.3782,-5.378,-5.3712,-5.3714,-5.3728,-5.3812,-5.3812,-5.3864,-5.3872,-5.3908,0,-5.3944,0,-5.3944,-5.395,-5.395,0,0,0,-5.3718,-5.3774,-5.3787,-5.3714,-5.3729,-5.3812,-5.3771,-5.3868,-5.3877,-5.3919,-5.3946,-5.395,-5.3947,-5.395,-5.3951,-5.4195,-5.4196,0,0,-5.3713,-5.3732,-5.378,-5.3793,-5.3782,-5.3768,-5.3774,-5.3873,-5.3903,-5.3946,-5.3953,-5.3949,-5.3951,-5.3953,-5.4193,-5.4195,0,0,0,-5.3706,-5.3729,-5.3739,-5.3789,-5.3803,-5.3771,-5.3777,-5.3899,-5.39,-5.3954,-5.395,-5.3952,-5.3954,-5.4191,-5.4194,-5.4289,0,0,0,-5.3703,-5.3725,-5.3737,-5.375,-5.3801,-5.3852,-5.3801,-5.3894,-5.3904,-5.3949,-5.3952,-5.3956,-5.419,-5.4193,-5.4283,-5.433,0,0,0,-5.3701,-5.3724,-5.3741,-5.3751,-5.3788,-5.385,-5.3857,-5.3895,-5.3903,-5.395,-5.3956,-5.4188,-5.4192,-5.4277,-5.432,-5.4399,0,0,0,-5.3705,-5.3823,-5.3743,-5.3874,-5.3788,-5.3909,-5.3856,-5.3945,-5.3998,-5.3953,-5.419,-5.4194,-5.4275,-5.4314,-5.4393,-5.4467,-5.45,0,0,-5.3864,-5.3843,-5.3919,-5.3849,-5.399,-5.3895,-5.4049,-5.4078,-5.4065,-5.4152,-5.4158,-5.4285,-5.4319,-5.4397,-5.4683,-5.471,0,0,0,-5.3975,-5.403,-5.4063,-5.4115,-5.4142,-5.4169,-5.4173,-5.4185,-5.4258,-5.4114,-5.4335,-5.4355,-5.44,-5.4434,-5.4457,-5.4493,-5.4211,-5.4211,-5.421,-5.4224,-5.4204,-5.4327,-5.4318,-5.4369,-5.4374,-5.4414,-5.443,-5.4392,-5.4445,-5.4469,-5.4645,-5.4686,-5.4703,-5.4742,-5.4509,-5.4509,-5.4509,-5.451,-5.4454,-5.4527,-5.4478,-5.458,-5.4558,-5.4643,-5.4654,-5.4625,-5.47,-5.4624,-5.4663,-5.4579,-5.4733,-5.4765,-5.4517,-5.4515,-5.4514,-5.4514,-5.4513,-5.4613,-5.4644,-5.4658,-5.4733,-5.4793,-5.478,-5.4856,-5.4833,-5.4811,-5.485,-5.4873,-5.4871,-5.4865,-5.4863,-5.4864,-5.4865,-5.4865,-5.4865,-5.4866,-5.477,-5.4784,-5.4851,-5.4893,-5.4924,-5.4963,-5.4973,-5.5003,-5.503,-5.5007,-5.5007,-5.4964,-5.4753,-5.4699,-5.4875,-5.4873,-5.4872,-5.4871,-5.4871,-5.5006,-5.495,-5.5053,-5.5086,-5.5134,-5.5196,-5.5168,-5.5232,-5.5254,-5.5292,-5.5243,-5.5091,-5.5067,-5.5049,-5.5003,-5.5248,-5.5248,-5.5248,-5.5248,-5.5137,-5.5125,-5.5226,-5.528,-5.5329,-5.5316,-5.5434,-5.5444,-5.5445,-5.5457,-5.542,-5.5359,-5.5342,-5.5327,-5.5303,-5.5261,-5.5565,-5.5565,-5.5566,-5.528,-5.5272,-5.5376,-5.5379,-5.5416,-5.5448,-5.5559,-5.5622,-5.5611,-5.5578,-5.5466,-5.5453,-5.5355,-5.5325,-5.5284,-5.5247,-5.5169,0,0]},{"header":{"parameterUnit":"m.s-1","parameterCategory":1,"la1":30.2992,"la2":30.254,"lo1":-89.0895,"lo2":-89.0443,"dy":0.0025,"dx":0.0025,"nx":19,"ny":19,"refTime":"2026-04-03T21:00:00:Z","depth":0,"parameterNumber":3,"parameterNumberName":"V-component_of_WINDS"},"data":[0,0,0,2.4688,2.4687,2.4648,2.4648,2.4587,2.4587,0,0,0,0,0,0,0,0,0,0,0,2.4695,2.4695,2.4688,2.4687,2.4648,2.4648,2.4587,2.4587,0,0,0,0,0,0,0,0,0,0,0,2.4696,2.4695,2.4695,2.4687,2.4648,2.4648,2.4587,2.462,0,0,0,0,0,0,0,0,0,0,2.4659,2.4663,2.4695,2.4694,2.4686,2.4648,2.4648,2.4622,2.4618,2.4601,0,2.4588,0,2.4587,2.4582,2.4582,0,0,0,2.4688,2.4666,2.466,2.4694,2.4686,2.4648,2.4666,2.462,2.4615,2.4596,2.4587,2.4585,2.4586,2.4582,2.4581,2.449,2.4489,0,0,2.4691,2.4685,2.4663,2.4657,2.4666,2.4667,2.4665,2.4617,2.4605,2.4587,2.4584,2.4585,2.4581,2.4581,2.449,2.449,0,0,0,2.4696,2.4686,2.4682,2.4659,2.4653,2.4666,2.4663,2.4607,2.4607,2.4583,2.4584,2.4581,2.458,2.4491,2.449,2.4461,0,0,0,2.4697,2.469,2.4682,2.4678,2.4654,2.463,2.4654,2.461,2.4605,2.4584,2.4581,2.4579,2.4491,2.449,2.4463,2.4447,0,0,0,2.4699,2.469,2.4683,2.4678,2.4662,2.4631,2.4628,2.4609,2.4605,2.4582,2.4579,2.4492,2.4491,2.4465,2.445,2.4422,0,0,0,2.4698,2.4654,2.4683,2.4634,2.4662,2.4616,2.4628,2.4592,2.4569,2.4581,2.4491,2.449,2.4465,2.4451,2.4424,2.4397,2.4386,0,0,2.4639,2.4647,2.4619,2.4644,2.4591,2.4622,2.4564,2.4545,2.4546,2.4508,2.4506,2.4462,2.445,2.4423,2.4328,2.4319,0,0,0,2.4598,2.4578,2.4566,2.4546,2.4535,2.4523,2.4516,2.451,2.4479,2.4527,2.4446,2.4438,2.4423,2.441,2.4402,2.4389,2.4485,2.4485,2.4485,2.4503,2.4512,2.4467,2.4472,2.4453,2.4449,2.4434,2.4424,2.4434,2.4416,2.4403,2.4345,2.433,2.4324,2.4311,2.4391,2.4391,2.4391,2.4391,2.4417,2.439,2.4411,2.4375,2.4384,2.4353,2.4349,2.4358,2.4329,2.4354,2.434,2.4365,2.4315,2.4303,2.4389,2.4389,2.4389,2.4389,2.439,2.4354,2.4343,2.4341,2.4317,2.4297,2.4303,2.4277,2.4285,2.4292,2.4279,2.4268,2.4269,2.4269,2.4274,2.4274,2.4274,2.4274,2.4274,2.4273,2.4289,2.4288,2.4266,2.4255,2.4246,2.4235,2.4235,2.4225,2.4216,2.4224,2.4224,2.4237,2.431,2.4327,2.427,2.4271,2.4271,2.4271,2.4272,2.4195,2.4219,2.4185,2.4177,2.4167,2.4148,2.4162,2.4143,2.4137,2.4124,2.4141,2.4194,2.4201,2.4207,2.4221,2.414,2.414,2.414,2.414,2.4141,2.4148,2.4118,2.4104,2.4092,2.4103,2.4065,2.4066,2.4069,2.4066,2.408,2.41,2.4106,2.4109,2.4117,2.413,2.4028,2.4028,2.4028,2.4083,2.4091,2.4056,2.4065,2.4059,2.4054,2.4018,2.4001,2.401,2.4024,2.4063,2.4068,2.4102,2.4112,2.4122,2.4135,2.416,0,0]}]]